Simultaneous Nadir Overpasses (SNOs) Predictions

Prediction of SNOs between LANDSAT-8 and METOP-B Satellite Orbit:

Table of predicted SNOs for the next 14.0 days since TLE Epoch: 3/21/2015
Index Date (LANDSAT-8) Time (LANDSAT-8) Lat,Lon (LANDSAT-8) SZA (LANDSAT-8 ) Date (METOP-B) Time (METOP-B) Lat,Lon (METOP-B) SZA (METOP-B ) Distance(km) Time Diff (sec)
1 03/23/2015 19:09:23 -81.04, 110.74 98.37 03/23/2015 19:08:59 -81.04, 110.82 98.36 1.54 24
2 03/23/2015 19:58:48 81.07, -81.20 81.69 03/23/2015 19:59:38 81.06, -81.25 81.70 1.01 50
3 03/26/2015 14:43:35 -81.04, 177.25 99.44 03/26/2015 14:43:23 -81.04, 177.25 99.44 0.17 12
4 03/26/2015 15:33:00 81.07, -14.71 80.61 03/26/2015 15:34:02 81.06, -14.87 80.62 2.96 62
5 03/29/2015 09:28:21 81.00, 75.48 79.42 03/29/2015 09:27:08 81.01, 75.44 79.39 0.78 73
6
